Location: Newark
(21.1200°N, 73.4000°E)
Time: 00:44:53
(UTC+00:00)

SR - Pass Details

Date: 03 February 2020
Orbit: 575 x 880 km, 66.7° (Epoch: 26 February)

Event Time Altitude Azimuth Distance (km) Brightness Sun altitude
Rises 13:10:49 0° 171° (S) 3,295 ? -3.8°
Reaches altitude 10° 13:13:38 10° 157° (SSE) 2,412 ? -4.4°
Maximum altitude 13:18:01 24° 106° (ESE) 1,702 ? -5.4°
Drops below altitude 10° 13:22:34 10° 54° (NE) 2,515 ? -6.4°
Enters shadow 13:24:26 - 45° (NE) 3,097 ? -6.9°
Sets 13:25:32 0° 41° (NE) 3,469 - -7.1°
